Location: El Álamo
(40.2307°N, 3.9945°W)
Time: 16:00:15
(UTC+00:00)

BlueWalker 3 - Pass Details

Date: 19 May 2025
Orbit: 460 x 472 km, 53.2° (Epoch: 22 June)

Event Time Altitude Azimuth Distance (km) Brightness Sun altitude
Rises 21:03:23 0° 316° (NW) 2,494 7.4 -15.4°
Reaches altitude 10° 21:05:57 10° 334° (NNW) 1,619 5.7 -15.8°
Maximum altitude 21:08:43 20° 24° (NNE) 1,130 3.9 -16.2°
Enters shadow 21:11:07 12° 69° (ENE) 1,511 4.1 -16.5°
